sat.trackr.live / text

‹ back to catalog

STARLINK-34856

NORAD 65687 · 2025-212M

PAYLOAD ACTIVE UNKNOWN

§ Identity

Operator
Country
US
Launch date
2025-09-21
Launch site
AFETR
Launch vehicle
Mass (kg)
RCS (m²)

Purposes: comms

External: N2YO · Heavens-Above · Gunter

§ Orbital elements

Epoch: 2026-09-19T23:54:28.045152Z

Period
94.01 min
Inclination
53.1597°
Eccentricity
0.0001252
Mean motion
15.31716901 rev/d
Perigee alt
469.8 km
Apogee alt
471.5 km
Semi-major
6,848.8 km
B*
6.6387e-4
RAAN
161.6590°
Arg perigee
95.9300°
Mean anomaly
264.1844°
Rev number
5,696

§ Raw data

STARLINK-348561 65687U 25212M   26262.99615793  .00020303  00000+0  66387-3 0  99912 65687  53.1597 161.6590 0001252  95.9300 264.1844 15.31716901 56967

JSON: /api/v1/satellites/65687 · /tle

For live sub-satellite position, see the globe view (requires WebGL).

§ Visibility from observer

Set your observer location to see the next 7 days of passes ≥ 10°. The values pass through the URL so the page stays shareable.

No JS? Fill the form by hand. The geolocation button needs JavaScript.